This is the latest recevied weather packets stored in our database for station/object WA7CUG. If no packets are shown the sender has not sent any weather packets the latest 10 day(s).
| Time | Temp. | Humidity | Pressure | Rain* | Wind** | Luminosity | Snow |
|---|---|---|---|---|---|---|---|
| 1777820310 | 13.89° C | 68% | 1017 hPa | 0 mm | - | 56 W/m² | - |
| 1777820008 | 13.33° C | 72% | 1017 hPa | 0 mm | - | 157 W/m² | - |
| 1777819705 | 13.33° C | 73% | 1017.1 hPa | 0 mm | - | 158 W/m² | - |
| 1777819403 | 12.22° C | 75% | 1017.1 hPa | 0 mm | - | 132 W/m² | - |
| 1777819100 | 11.67° C | 76% | 1017 hPa | 0 mm | - | 124 W/m² | - |
| 1777818797 | 12.22° C | 76% | 1017.1 hPa | 0 mm | - | 114 W/m² | - |
| 1777818493 | 11.67° C | 74% | 1017.2 hPa | 0 mm | - | 105 W/m² | - |
| 1777818190 | 11.67° C | 76% | 1017 hPa | 0 mm | - | 93 W/m² | - |
| 1777817886 | 11.67° C | 76% | 1017.2 hPa | 0 mm | - | 91 W/m² | - |
| 1777817584 | 11.67° C | 79% | 1017 hPa | 0 mm | - | 85 W/m² | - |
| 1777817280 | 11.11° C | 78% | 1017 hPa | 0 mm | - | 77 W/m² | - |
| 1777816977 | 10.56° C | 80% | 1016.9 hPa | 0 mm | - | 69 W/m² | - |
| 1777816673 | 8.89° C | 82% | 1017 hPa | 0 mm | - | 60 W/m² | - |
| 1777816370 | 8.89° C | 84% | 1016.9 hPa | 0 mm | - | 37 W/m² | - |
| 1777816069 | 9.44° C | 83% | 1016.9 hPa | 0 mm | - | 41 W/m² | - |
| 1777815766 | 8.89° C | 82% | 1017 hPa | 0 mm | - | 38 W/m² | - |
| 1777815463 | 8.33° C | 85% | 1016.8 hPa | 0 mm | - | 34 W/m² | - |
| 1777815160 | 8.33° C | 83% | 1016.8 hPa | 0 mm | - | 25 W/m² | - |
| 1777814857 | 8.89° C | 84% | 1016.8 hPa | 0 mm | - | 23 W/m² | - |
| 1777814552 | 8.89° C | 82% | 1016.7 hPa | 0 mm | - | 22 W/m² | - |
| 1777814250 | 8.33° C | 83% | 1016.6 hPa | 0 mm | - | 21 W/m² | - |
| 1777813947 | 7.78° C | 86% | 1016.7 hPa | 0 mm | - | 18 W/m² | - |
| 1777813645 | 8.33° C | 84% | 1016.7 hPa | 0 mm | - | 16 W/m² | - |
| 1777813342 | 8.33° C | 83% | 1016.7 hPa | 0 mm | - | 14 W/m² | - |
| 1777813040 | 8.33° C | 82% | 1016.6 hPa | 0 mm | - | 12 W/m² | - |
* Rain latest hour (hover to see other rain measurements)
** Current wind speed in m/s (hover to see current wind gust speed)